User: anonymous   Login
Location: Bothwell
(41.7170°N, 112.2589°W)
Time: 05:46:44
(UTC+00:00)
Language:

S-56A Canister/Altair - Orbit

View from above orbital plane
View from above orbital plane
View from above satellite
View from above satellite

Ground track
Ground track

The orbit is defined by the following mean orbital elements,

1 00082U          26129.72009713 +.00000000 +00000-0 +11195-3 0 00002
2 00082  38.8522 142.6735 1166041  39.8211 328.2437 12.27900681    06
Epoch (UTC): 09 May 2026 17:16:56
Eccentricity: 0.1166041
inclination: 38.8522°
perigee height: 633 km
apogee height: 2484 km
right ascension of ascending node: 142.6735°
argument of perigee: 39.8211°
revolutions per day: 12.27900681
mean anomaly at epoch: 328.2437°

The dashed part of the orbit path shows where the satellite is in the earth's shadow,  

DLR